Simultaneous Nadir Overpasses (SNOs) Predictions

Prediction of SNOs between METOP-B and TERRA Satellite Orbit:

Table of predicted SNOs for the next 14.0 days since TLE Epoch: 11/3/2018
Index Date (METOP-B) Time (METOP-B) Lat,Lon (METOP-B) SZA (METOP-B ) Date (TERRA) Time (TERRA) Lat,Lon (TERRA) SZA (TERRA ) Distance(km) Time Diff (sec)
1 11/03/2018 17:41:43 81.27, -38.87 99.55 11/03/2018 17:42:45 81.28, -38.76 99.60 2.17 62
2 11/03/2018 18:32:23 -81.27, 128.75 80.41 11/03/2018 18:32:12 -81.27, 128.75 80.42 0.46 11
3 11/06/2018 13:16:08 81.27, 27.80 100.43 11/06/2018 13:16:58 81.28, 27.69 100.44 2.02 50
4 11/06/2018 14:06:49 -81.27,-164.96 79.58 11/06/2018 14:06:25 -81.27,-164.78 79.57 3.14 24
5 11/09/2018 08:50:34 81.27, 94.09 101.23 11/09/2018 08:51:11 81.28, 94.18 101.26 1.61 37
6 11/09/2018 09:41:14 -81.28, -98.28 78.73 11/09/2018 09:40:38 -81.27, -98.26 78.75 0.36 36
7 11/12/2018 04:25:00 81.27, 160.39 101.99 11/12/2018 04:25:25 81.26, 160.34 101.99 1.14 25
8 11/12/2018 05:15:39 -81.28, -31.59 77.93 11/12/2018 05:14:51 -81.28, -31.69 77.96 1.71 48
9 11/14/2018 23:59:24 81.27,-132.92 102.75 11/14/2018 23:59:37 81.27,-133.07 102.74 2.48 13




NCC Satellite Simultaneous Nadir Overpasses (SNOs) Prediction Service
